• In Netherlands
  • List of Countries
  • For 7 days
  • Water Temperature
  • Satellite Maps
  • Weather Map
  • Weather Widgets
  • user-avatar
    Login

    Hourly Weather Shumen

    Today, 26 May, Friday

    Time Temperature Precipitation Wind Pressure Humidity
    00:00 +10°C° 0 mm 2 mps 729 mmHg 94%
    01:00 +10°C° 0 mm 2 mps 728 mmHg 94%
    02:00 +10°C° 0 mm 1 mps 728 mmHg 94%
    03:00 +10°C° 0 mm 1 mps 728 mmHg 94%
    04:00 +10°C° 0 mm 1 mps 728 mmHg 94%
    05:00 +10°C° 0 mm 1 mps 728 mmHg 94%
    06:00 +12°C° 0 mm 1 mps 728 mmHg 90%
    07:00 +13°C° 0 mm 1 mps 729 mmHg 86%
    08:00 +15°C° 0 mm 1 mps 729 mmHg 83%
    09:00 +16°C° 0 mm 2 mps 729 mmHg 77%
    10:00 +18°C° 0 mm 2 mps 729 mmHg 72%
    11:00 +19°C° 0 mm 3 mps 729 mmHg 66%
    12:00 +20°C° 0.3 mm 3 mps 729 mmHg 67%
    13:00 +20°C° 0.3 mm 3 mps 729 mmHg 67%
    14:00 +20°C° 0.3 mm 3 mps 729 mmHg 67%
    15:00 +20°C° 0.5 mm 3 mps 728 mmHg 69%
    16:00 +20°C° 0.5 mm 3 mps 728 mmHg 71%
    17:00 +19°C° 0.5 mm 3 mps 728 mmHg 73%
    18:00 +17°C° 0.1 mm 3 mps 728 mmHg 79%
    19:00 +16°C° 0.1 mm 3 mps 728 mmHg 85%
    20:00 +14°C° 0.1 mm 2 mps 728 mmHg 91%
    21:00 +13°C° 0.1 mm 2 mps 728 mmHg 92%
    22:00 +12°C° 0.1 mm 2 mps 728 mmHg 93%
    23:00 +10°C° 0.1 mm 2 mps 729 mmHg 95%

    Tomorrow, 27 May, Saturday

    Time Temperature Precipitation Wind Pressure Humidity
    00:00 +11°C° 0 mm 1 mps 728 mmHg 94%
    01:00 +10°C° 0 mm 1 mps 728 mmHg 94%
    02:00 +10°C° 0 mm 1 mps 728 mmHg 94%
    03:00 +10°C° 0 mm 1 mps 728 mmHg 94%
    04:00 +10°C° 0 mm 1 mps 728 mmHg 93%
    05:00 +10°C° 0 mm 1 mps 728 mmHg 93%
    06:00 +11°C° 0 mm 1 mps 729 mmHg 88%
    07:00 +13°C° 0 mm 1 mps 729 mmHg 83%
    08:00 +15°C° 0 mm 2 mps 730 mmHg 77%
    09:00 +16°C° 0.4 mm 2 mps 730 mmHg 75%
    10:00 +17°C° 0.4 mm 2 mps 730 mmHg 73%
    11:00 +17°C° 0.4 mm 3 mps 730 mmHg 71%
    12:00 +17°C° 0.9 mm 3 mps 730 mmHg 75%
    13:00 +16°C° 0.9 mm 3 mps 731 mmHg 79%
    14:00 +15°C° 0.9 mm 4 mps 731 mmHg 83%
    15:00 +15°C° 0.4 mm 4 mps 730 mmHg 84%
    16:00 +16°C° 0.4 mm 3 mps 730 mmHg 84%
    17:00 +16°C° 0.4 mm 3 mps 730 mmHg 85%
    18:00 +14°C° 0.1 mm 3 mps 731 mmHg 88%
    19:00 +14°C° 0.1 mm 2 mps 731 mmHg 90%
    20:00 +13°C° 0.1 mm 2 mps 731 mmHg 93%
    21:00 +13°C° 0.2 mm 2 mps 731 mmHg 93%
    22:00 +13°C° 0.2 mm 2 mps 732 mmHg 94%
    23:00 +12°C° 0.2 mm 2 mps 732 mmHg 94%

    Day after tomorrow, 28 May, Sunday

    Time Temperature Precipitation Wind Pressure Humidity
    00:00 +12°C° 0.1 mm 2 mps 732 mmHg 95%
    01:00 +12°C° 0.1 mm 2 mps 732 mmHg 95%
    02:00 +12°C° 0.1 mm 2 mps 732 mmHg 95%
    03:00 +10°C° 0 mm 3 mps 732 mmHg 96%
    04:00 +10°C° 0 mm 3 mps 732 mmHg 96%
    05:00 +10°C° 0 mm 3 mps 733 mmHg 97%
    06:00 +11°C° 0 mm 3 mps 733 mmHg 94%
    07:00 +13°C° 0 mm 3 mps 734 mmHg 91%
    08:00 +14°C° 0 mm 4 mps 734 mmHg 88%
    09:00 +15°C° 0.2 mm 4 mps 734 mmHg 83%
    10:00 +17°C° 0.2 mm 4 mps 735 mmHg 77%
    11:00 +19°C° 0.2 mm 5 mps 735 mmHg 72%
    12:00 +19°C° 0.7 mm 5 mps 735 mmHg 70%
    13:00 +20°C° 0.7 mm 5 mps 735 mmHg 68%
    14:00 +20°C° 0.7 mm 5 mps 735 mmHg 66%
    15:00 +20°C° 0.4 mm 5 mps 735 mmHg 66%
    16:00 +20°C° 0.4 mm 4 mps 735 mmHg 66%
    17:00 +20°C° 0.4 mm 4 mps 735 mmHg 66%
    18:00 +18°C° 0.1 mm 3 mps 735 mmHg 72%
    19:00 +15°C° 0.1 mm 2 mps 735 mmHg 78%
    20:00 +13°C° 0.1 mm 2 mps 735 mmHg 85%
    21:00 +12°C° 0 mm 1 mps 735 mmHg 85%
    22:00 +11°C° 0 mm 1 mps 736 mmHg 86%
    23:00 +10°C° 0 mm 1 mps 736 mmHg 87%

    29 May, Monday

    Time Temperature Precipitation Wind Pressure Humidity
    00:00 +10°C° 0 mm 1 mps 736 mmHg 86%
    01:00 +10°C° 0 mm 1 mps 736 mmHg 85%
    02:00 +10°C° 0 mm 1 mps 735 mmHg 84%
    03:00 +10°C° 0 mm 1 mps 735 mmHg 83%
    04:00 +10°C° 0 mm 2 mps 735 mmHg 83%
    05:00 +10°C° 0 mm 2 mps 735 mmHg 82%
    06:00 +13°C° 0 mm 2 mps 736 mmHg 78%
    07:00 +15°C° 0 mm 2 mps 736 mmHg 74%
    08:00 +18°C° 0 mm 3 mps 736 mmHg 70%
    09:00 +19°C° 0 mm 3 mps 736 mmHg 64%
    10:00 +20°C° 0 mm 3 mps 736 mmHg 59%
    11:00 +22°C° 0 mm 4 mps 736 mmHg 53%
    12:00 +22°C° 0.1 mm 4 mps 736 mmHg 53%
    13:00 +22°C° 0.1 mm 4 mps 735 mmHg 53%
    14:00 +22°C° 0.1 mm 4 mps 735 mmHg 53%
    15:00 +22°C° 0.1 mm 3 mps 735 mmHg 55%
    16:00 +22°C° 0.1 mm 3 mps 734 mmHg 57%
    17:00 +21°C° 0.1 mm 3 mps 734 mmHg 59%
    18:00 +19°C° 0 mm 3 mps 734 mmHg 67%
    19:00 +16°C° 0 mm 2 mps 734 mmHg 75%
    20:00 +14°C° 0 mm 2 mps 733 mmHg 83%
    21:00 +13°C° 0 mm 1 mps 733 mmHg 84%
    22:00 +12°C° 0 mm 1 mps 733 mmHg 85%
    23:00 +11°C° 0 mm 1 mps 733 mmHg 86%

    30 May, Tuesday

    Time Temperature Precipitation Wind Pressure Humidity
    00:00 +10°C° 0 mm 1 mps 733 mmHg 86%
    01:00 +10°C° 0 mm 1 mps 732 mmHg 86%
    02:00 +10°C° 0 mm 1 mps 732 mmHg 86%
    03:00 +9°C° 0 mm 0 mps 732 mmHg 86%
    04:00 +9°C° 0 mm 0 mps 731 mmHg 86%
    05:00 +8°C° 0 mm 0 mps 731 mmHg 86%
    06:00 +12°C° 0 mm 0 mps 732 mmHg 78%
    07:00 +15°C° 0 mm 0 mps 732 mmHg 70%
    08:00 +18°C° 0 mm 0 mps 732 mmHg 62%
    09:00 +21°C° 0 mm 1 mps 732 mmHg 60%
    10:00 +22°C° 0 mm 1 mps 732 mmHg 57%
    11:00 +24°C° 0 mm 1 mps 732 mmHg 55%
    12:00 +24°C° 0 mm 1 mps 732 mmHg 54%
    13:00 +25°C° 0 mm 1 mps 732 mmHg 52%
    14:00 +25°C° 0 mm 1 mps 731 mmHg 51%
    15:00 +25°C° 0.1 mm 2 mps 731 mmHg 53%
    16:00 +25°C° 0.1 mm 2 mps 731 mmHg 55%
    17:00 +24°C° 0.1 mm 2 mps 731 mmHg 57%
    18:00 +21°C° 0 mm 2 mps 731 mmHg 66%
    19:00 +19°C° 0 mm 1 mps 730 mmHg 74%
    20:00 +16°C° 0 mm 1 mps 730 mmHg 82%
    21:00 +15°C° 0 mm 1 mps 730 mmHg 83%
    22:00 +14°C° 0 mm 1 mps 730 mmHg 84%
    23:00 +14°C° 0 mm 1 mps 730 mmHg 85%

    31 May, Wednesday

    Time Temperature Precipitation Wind Pressure Humidity
    00:00 +14°C° 0 mm 1 mps 730 mmHg 85%
    01:00 +14°C° 0 mm 1 mps 730 mmHg 85%
    02:00 +14°C° 0 mm 2 mps 730 mmHg 85%
    03:00 +14°C° 0 mm 2 mps 730 mmHg 84%
    04:00 +14°C° 0 mm 2 mps 730 mmHg 84%
    05:00 +14°C° 0 mm 2 mps 729 mmHg 83%
    06:00 +16°C° 0 mm 2 mps 730 mmHg 77%
    07:00 +19°C° 0 mm 2 mps 730 mmHg 71%
    08:00 +21°C° 0 mm 3 mps 730 mmHg 65%
    09:00 +24°C° 0 mm 3 mps 731 mmHg 62%
    10:00 +25°C° 0 mm 3 mps 731 mmHg 58%
    11:00 +26°C° 0 mm 3 mps 731 mmHg 55%
    12:00 +27°C° 0.1 mm 3 mps 731 mmHg 54%
    13:00 +27°C° 0.1 mm 3 mps 730 mmHg 53%
    14:00 +28°C° 0.1 mm 3 mps 730 mmHg 51%
    15:00 +28°C° 0.3 mm 3 mps 730 mmHg 54%
    16:00 +27°C° 0.3 mm 3 mps 730 mmHg 57%
    17:00 +27°C° 0.3 mm 3 mps 730 mmHg 60%
    18:00 +25°C° 0.1 mm 2 mps 730 mmHg 66%
    19:00 +23°C° 0.1 mm 2 mps 729 mmHg 73%
    20:00 +19°C° 0.1 mm 2 mps 729 mmHg 80%
    21:00 +19°C° 0 mm 2 mps 729 mmHg 80%
    22:00 +19°C° 0 mm 2 mps 729 mmHg 79%
    23:00 +18°C° 0 mm 2 mps 730 mmHg 79%
    Show more